This is the latest recevied weather packets stored in our database for station/object AI9F. If no packets are shown the sender has not sent any weather packets the latest 10 day(s).
| Time | Temp. | Humidity | Pressure | Rain* | Wind** | Luminosity | Snow |
|---|---|---|---|---|---|---|---|
| 1777828183 | 17.78° C | 46% | 1018.4 hPa | 0 mm | - | 818 W/m² | - |
| 1777827878 | 17.78° C | 47% | 1018.5 hPa | 0 mm | - | 813 W/m² | - |
| 1777827576 | 17.22° C | 48% | 1018.7 hPa | 0 mm | - | 804 W/m² | - |
| 1777827274 | 17.78° C | 45% | 1018.5 hPa | 0 mm | - | 802 W/m² | - |
| 1777826969 | 17.22° C | 48% | 1018.7 hPa | 0 mm | - | 791 W/m² | - |
| 1777826667 | 17.78° C | 47% | 1018.7 hPa | 0 mm | - | 789 W/m² | - |
| 1777826363 | 17.78° C | 47% | 1018.7 hPa | 0 mm | - | 785 W/m² | - |
| 1777826061 | 17.22° C | 48% | 1018.7 hPa | 0 mm | - | 776 W/m² | - |
| 1777825757 | 17.22° C | 47% | 1018.7 hPa | 0 mm | - | 762 W/m² | - |
| 1777825455 | 16.67° C | 53% | 1018.9 hPa | 0 mm | - | 760 W/m² | - |
| 1777825152 | 16.67° C | 50% | 1019.1 hPa | 0 mm | - | 753 W/m² | - |
| 1777824848 | 16.11° C | 50% | 1019.2 hPa | 0 mm | - | 739 W/m² | - |
| 1777824545 | 16.11° C | 49% | 1019.3 hPa | 0 mm | - | 521 W/m² | - |
| 1777824241 | 16.11° C | 54% | 1019.2 hPa | 0 mm | - | 723 W/m² | - |
| 1777823937 | 15.56° C | 50% | 1019.2 hPa | 0 mm | - | 224 W/m² | - |
| 1777823635 | 15.56° C | 53% | 1019.4 hPa | 0 mm | - | 217 W/m² | - |
| 1777823331 | 16.11° C | 50% | 1019.4 hPa | 0 mm | - | 372 W/m² | - |
| 1777823029 | 15.56° C | 53% | 1019.5 hPa | 0 mm | - | 211 W/m² | - |
| 1777822727 | 15° C | 53% | 1019.5 hPa | 0 mm | - | 110 W/m² | - |
| 1777822425 | 15° C | 53% | 1019.7 hPa | 0 mm | - | 85 W/m² | - |
| 1777822122 | 15° C | 57% | 1019.6 hPa | 0 mm | - | 76 W/m² | - |
| 1777821820 | 15° C | 53% | 1019.8 hPa | 0 mm | - | 77 W/m² | - |
| 1777821517 | 14.44° C | 55% | 1019.6 hPa | 0 mm | - | 77 W/m² | - |
| 1777821214 | 14.44° C | 56% | 1019.6 hPa | 0 mm | - | 76 W/m² | - |
| 1777820911 | 13.89° C | 54% | 1019.7 hPa | 0 mm | - | 73 W/m² | - |
* Rain latest hour (hover to see other rain measurements)
** Current wind speed in m/s (hover to see current wind gust speed)